カタログに戻る

COSMOS 468

運用中軍事LEO
NORAD 5705·PAYLOAD·🇷🇺 Russia

打ち上げ Dec 17, 1971 から Plesetsk Cosmodrome

Loading…

次のパス (今後24時間)

TLE

最新Source: Space-Track

元期: Sep 13, 2026, 23:24 UTC

1 05705U 71114A   26256.97530408  .00000071  00000-0  33063-4 0  9995
2 05705  74.0159  78.3134 0014022 107.8941 252.3742 14.36757881863967

AllMySatでCOSMOS 468をリアルタイム追跡

Download on the App Store